Theta_e
308 309 309 309 309 320 323 323 321 318 316 310 310 306 306 303 301 301 300 298 296 295 296 296 295 296 295 295 295 295 293 293 291 292 293 292 291 290 290 291 291 291 291
308 309 309 311 311 314 317 315 311 308 308 306 304 301 300 299 299 298 293 293 292 292 294 294 292 292 292 292 293 291 291 291 290 288 289 289 289 290 290 289 289 290 291
304 305 305 307 308 307 305 304 303 302 299 301 300 300 297 295 294 292 292 291 292 293 292 292 291 291 290 290 290 289 289 288 289 288 287 289 289 290 288 289 289 290 289
302 302 301 301 304 302 299 298 297 297 296 296 296 295 293 291 290 289 290 290 291 290 291 290 290 289 289 289 288 288 288 288 287 287 287 287 288 288 288 286 285 288 287
300 299 298 295 296 296 294 293 293 291 291 291 290 289 289 289 289 289 290 290 289 288 288 288 288 287 287 288 288 287 287 287 286 286 285 286 285 285 284 285 284 285 287
299 298 294 292 292 291 290 290 289 288 289 289 289 289 289 286 290 290 289 288 288 287 286 286 286 285 287 287 287 286 287 286 285 284 284 283 284 285 285 284 283 282 281
296 293 292 291 289 289 288 287 287 287 289 288 289 289 288 289 290 289 288 287 287 287 286 285 285 285 286 286 286 286 286 286 286 286 284 284 284 285 285 283 283 282 282
292 291 289 289 288 287 287 287 286 287 287 287 287 288 288 288 289 288 287 287 287 286 286 286 286 285 286 285 286 285 285 285 286 286 286 286 286 288 287 285 284 283 284
290 289 288 288 286 286 286 286 285 285 285 286 287 287 287 287 288 288 286 286 285 285 286 286 286 285 285 287 286 285 285 285 286 286 286 287 287 288 287 285 283 280 280
289 288 288 287 286 286 285 285 284 286 285 285 285 286 286 286 288 288 286 286 285 284 284 284 283 285 286 286 286 284 282 283 284 285 285 285 285 285 284 284 282 278 278
287 286 286 286 286 286 285 284 284 284 283 284 284 284 285 286 287 288 287 286 286 285 284 283 284 285 285 285 285 283 282 284 283 283 282 283 282 282 282 281 281 279 277
286 285 284 285 284 284 284 283 284 283 282 282 282 282 283 284 285 288 288 286 286 285 284 284 284 284 284 284 282 281 279 278 279 279 279 279 279 279 279 279 279 279 279
285 284 284 284 284 284 284 282 282 283 282 281 281 282 281 282 284 287 287 286 286 284 284 283 283 282 281 279 278 276 274 277 277 276 276 276 276 277 276 277 277 277 277
284 283 282 283 282 282 283 283 283 282 282 281 281 282 282 281 282 284 284 285 284 284 283 281 281 279 277 276 274 275 276 275 274 274 274 274 275 274 274 275 274 274 274
283 282 282 283 282 281 281 282 282 283 283 283 283 283 281 281 281 283 283 282 283 283 278 277 277 276 276 275 275 273 274 273 273 273 272 272 272 272 272 273 272 272 272
281 280 281 280 280 280 279 278 280 281 281 282 282 283 282 281 283 283 283 283 282 282 277 277 276 276 275 275 274 273 272 270 272 271 271 270 270 269 269 270 271 271 270
282 280 279 279 279 278 278 278 278 278 280 281 282 282 282 281 282 283 283 283 283 281 276 276 275 275 274 273 272 271 271 271 267 268 269 268 268 268 267 268 269 269 269
280 278 279 279 279 279 279 279 279 278 277 278 281 282 282 281 282 283 284 282 278 275 273 275 273 273 272 271 270 269 269 268 268 268 268 267 266 266 266 267 267 266 267
278 278 278 279 278 278 278 278 277 277 277 278 276 277 277 283 282 282 283 280 275 274 272 270 271 271 270 269 269 268 267 267 267 266 266 265 265 265 265 265 265 263 263
275 273 275 277 277 277 276 276 276 276 276 276 276 276 275 272 278 279 281 280 274 274 272 270 269 268 268 267 267 267 266 264 264 264 264 265 265 264 264 263 264 264 264
275 275 272 274 275 275 275 274 275 276 275 275 275 275 274 273 276 276 276 273 273 272 270 268 268 266 266 266 265 265 264 265 265 264 264 263 263 263 263 263 263 263 263
272 273 272 272 273 272 273 273 274 274 274 274 274 272 274 274 272 273 272 272 271 270 270 269 267 266 265 264 264 264 264 264 264 263 263 262 262 262 261 261 261 262 262
270 270 271 271 271 270 270 271 271 271 272 272 271 271 269 271 273 272 271 270 268 267 266 264 265 264 264 263 265 265 264 264 265 264 263 262 261 261 261 261 261 260 261
268 268 269 269 269 269 269 269 270 268 268 269 269 269 269 269 269 269 269 268 267 266 265 262 262 263 264 264 264 264 264 264 265 263 262 261 261 261 260 260 260 259 259
266 266 266 267 267 267 268 267 268 268 268 268 268 267 267 267 267 266 266 265 265 264 264 263 263 263 263 263 264 264 264 263 263 262 261 260 259 259 259 258 259 259 259
263 264 264 264 264 264 265 265 265 266 265 266 266 266 266 265 266 265 265 264 264 264 264 264 264 263 263 263 263 263 263 263 261 261 260 259 258 258 258 257 257 257 258
Wind_Speed
8 8 8 8 9 10 10 9 9 9 10 9 9 8 8 8 7 7 7 7 7 7 5 8 7 6 4 4 3 3 3 1 2 1 1 3 5 7 7 7 7 8 9
7 7 6 6 7 9 8 7 7 9 7 10 10 9 8 7 8 9 9 4 8 8 8 9 8 5 6 4 3 4 4 3 1 3 3 4 6 7 8 9 8 7 9
5 7 7 6 7 6 6 7 7 9 8 9 9 11 10 8 8 7 9 7 7 9 8 8 8 7 5 4 3 4 4 2 2 1 3 3 5 5 8 7 8 8 8
4 4 5 6 7 7 8 8 8 8 8 8 8 10 10 8 8 8 9 9 9 7 7 7 6 6 6 6 4 4 4 3 1 1 3 4 5 6 6 8 9 8 9
7 6 6 5 7 7 7 7 9 7 7 6 8 9 8 8 6 9 8 10 10 9 8 7 6 6 7 6 5 5 3 2 1 3 4 4 5 7 8 8 9 9 9
8 8 7 6 6 6 7 7 8 8 7 7 8 9 9 4 13 12 10 8 9 9 9 8 8 6 6 6 6 4 1 2 1 3 4 5 7 6 7 8 9 10 10
7 7 8 6 6 6 7 8 8 8 8 7 8 8 8 7 13 13 11 8 8 8 9 8 6 4 5 5 5 3 2 4 5 5 6 7 8 8 8 8 9 9 10
6 6 6 7 7 6 7 7 7 6 7 7 7 8 7 6 13 14 11 7 7 7 7 7 7 7 6 5 4 4 3 3 4 4 6 8 9 8 8 9 9 10 9
8 8 7 7 8 8 7 7 6 7 7 6 6 7 8 8 13 14 9 6 6 6 6 6 6 6 7 8 4 4 3 4 4 8 11 13 13 13 10 7 7 9 10
9 8 8 8 8 9 9 8 4 5 5 4 6 5 5 7 12 13 9 5 6 5 6 5 6 5 7 7 3 1 3 5 5 6 5 7 9 9 11 7 7 8 8
7 8 8 8 8 7 8 4 6 6 6 6 6 5 4 5 9 13 12 5 6 6 6 5 4 6 7 5 2 1 4 5 6 5 5 6 6 5 5 5 7 6 8
8 8 7 7 6 6 9 6 6 7 7 7 7 5 4 4 6 13 13 10 8 5 5 4 4 7 7 4 1 2 3 4 3 3 4 4 4 5 6 6 8 8 9
8 7 7 7 7 7 9 8 7 7 7 7 7 7 7 6 5 11 12 11 9 4 4 6 8 3 4 3 2 2 1 1 2 3 3 4 4 5 7 6 7 8 10
7 8 7 7 7 6 5 6 6 7 7 6 7 7 6 7 7 5 5 6 8 6 7 4 4 4 2 3 2 1 1 1 2 2 3 3 4 4 5 5 6 6 7
7 6 7 6 7 7 5 6 6 5 7 7 7 6 8 8 9 11 10 7 6 7 6 3 4 4 4 3 3 2 2 2 3 2 3 3 4 4 5 5 5 7 7
7 6 6 6 6 6 6 4 6 5 10 8 6 7 5 2 11 17 15 13 12 11 3 4 6 5 5 5 5 4 4 3 2 2 3 3 4 4 5 5 5 5 6
5 5 4 4 5 6 5 6 6 3 5 11 11 11 13 8 12 16 15 13 12 13 6 6 6 6 6 6 5 5 4 3 1 3 3 3 3 4 4 5 5 5 6
3 5 5 6 6 6 6 6 5 6 6 6 11 10 12 12 13 16 16 11 7 6 6 7 7 7 6 6 6 5 4 4 4 4 4 3 3 4 4 5 5 4 5
3 3 4 4 5 5 5 5 5 5 5 4 3 5 4 15 14 15 17 9 8 8 8 7 6 6 6 6 5 5 6 6 5 4 5 4 4 4 4 4 5 5 5
2 1 2 3 3 5 5 6 6 6 7 7 7 7 4 3 8 10 10 9 8 8 7 7 6 6 6 7 6 6 6 6 6 6 6 5 4 5 5 5 5 5 5
2 2 1 3 3 4 4 5 6 6 6 6 7 6 11 8 9 9 8 8 8 7 7 7 7 7 6 7 6 7 7 7 7 6 6 6 5 5 5 5 5 5 6
2 2 2 3 3 4 5 5 6 7 7 8 6 5 13 8 8 8 8 8 7 8 6 7 6 7 7 7 8 8 8 8 8 7 7 6 6 6 5 6 6 6 6
3 3 4 4 5 5 5 6 7 7 8 8 7 7 7 8 9 9 9 8 7 7 6 6 7 7 7 7 8 8 8 8 8 7 7 7 6 6 6 7 6 6 6
3 4 5 5 5 5 6 7 7 8 9 8 8 8 8 8 8 9 8 7 7 7 7 7 8 9 8 8 8 8 8 7 6 7 9 7 7 7 6 7 7 7 7
3 4 4 5 6 6 7 7 8 8 8 8 8 8 8 8 8 8 7 7 7 6 7 7 7 9 12 13 11 11 10 13 10 9 7 9 9 10 7 7 7 7 8
4 4 5 5 5 6 7 7 8 7 8 8 8 8 8 8 8 7 7 7 6 7 8 7 8 13 13 11 13 13 12 14 11 14 9 8 8 8 7 9 10 7 8
Wind_Direction
172 176 194 204 216 221 212 193 177 166 158 136 146 128 132 122 112 113 120 119 119 122 115 117 114 121 113 111 106 107 104 61 258 169 278 340 336 333 334 330 319 322 320
160 169 191 191 197 201 194 171 147 142 142 136 129 121 121 121 130 133 124 116 129 122 133 124 128 127 119 123 106 107 107 91 267 297 328 330 332 330 328 327 329 317 318
166 157 155 173 181 164 138 135 122 127 124 136 135 142 142 134 125 118 126 126 118 135 136 137 139 138 116 113 125 108 86 105 102 246 291 304 315 328 328 325 328 320 325
162 159 160 154 162 152 140 126 120 126 131 137 138 137 128 125 122 120 122 125 127 120 118 117 122 123 138 139 128 137 129 134 150 270 277 299 316 339 324 337 331 334 328
162 167 162 142 130 137 121 116 122 108 117 114 128 112 117 125 133 130 135 137 134 125 114 115 126 121 128 149 158 142 130 108 292 312 302 311 328 339 343 336 327 327 330
171 168 149 141 128 122 120 115 115 113 122 132 127 129 129 118 143 141 140 141 132 137 141 139 137 142 138 134 121 116 114 178 254 293 288 301 313 323 335 334 327 333 334
174 159 157 142 132 131 126 127 131 137 137 134 128 127 125 136 148 147 138 138 143 152 151 149 146 152 157 161 177 209 199 255 274 271 276 288 305 318 327 318 320 313 304
161 161 152 143 136 136 137 137 131 137 139 137 129 126 128 138 153 150 140 131 134 140 149 159 165 172 183 181 197 224 230 245 272 276 277 291 292 298 308 314 306 297 291
177 171 168 153 145 145 147 145 133 135 133 141 138 143 140 145 154 149 134 125 136 149 156 163 171 184 190 200 200 233 251 282 282 296 294 286 296 311 315 309 305 317 312
175 171 166 155 159 158 150 147 132 126 123 133 121 113 124 134 157 159 156 148 149 160 166 165 180 191 193 209 221 249 279 287 291 293 296 300 306 303 305 300 310 310 312
144 151 160 154 157 147 130 116 135 128 127 118 123 118 136 153 170 175 179 169 173 170 175 183 186 194 207 235 240 215 270 315 309 294 289 297 300 297 306 313 312 306 297
149 151 151 140 136 134 137 129 125 133 140 143 148 162 184 192 202 192 194 196 183 168 184 183 187 204 222 240 291 297 360 318 305 292 292 292 300 314 318 318 315 299 289
148 146 146 139 146 152 146 145 149 158 160 169 179 183 189 196 203 200 197 195 188 174 181 185 180 168 129 125 139 71 220 310 297 283 290 291 301 306 308 302 308 300 290
145 151 144 151 154 152 146 158 166 175 176 177 188 196 190 191 194 191 188 192 198 183 176 147 168 168 168 151 197 207 268 290 286 281 282 296 301 305 310 324 314 317 307
147 149 160 166 170 170 169 178 187 198 197 190 202 190 182 201 204 194 187 189 192 192 144 161 193 210 216 220 226 233 235 231 244 268 276 296 299 308 311 323 318 318 311
153 167 180 172 172 176 178 175 211 221 209 221 217 207 207 241 191 196 195 196 193 178 183 209 220 221 224 218 221 224 224 218 251 272 269 283 298 309 316 315 311 310 313
174 171 166 168 179 183 188 192 194 202 234 224 225 225 218 209 202 192 193 199 203 186 217 217 227 220 220 214 216 215 221 208 216 244 252 264 282 288 295 308 311 312 317
165 162 180 189 191 193 198 204 204 199 211 216 235 224 220 210 204 198 194 188 192 208 229 231 222 217 216 214 208 209 215 211 226 236 241 242 251 280 291 294 298 304 312
216 205 203 200 203 204 199 203 214 217 221 225 213 236 275 222 214 222 211 214 208 212 214 222 225 219 217 210 208 208 213 217 221 219 227 224 229 252 268 270 279 284 294
235 209 195 210 208 215 219 224 222 219 223 222 221 224 192 177 213 219 218 223 211 213 211 215 213 215 215 208 209 210 211 208 218 221 225 227 227 230 244 259 264 282 286
283 251 262 238 237 237 238 236 239 241 245 250 255 228 208 212 222 222 216 218 229 222 211 211 208 209 209 213 210 216 216 221 220 220 226 220 222 231 232 250 264 260 268
275 254 234 249 262 257 253 253 251 251 252 257 261 246 235 224 234 238 236 231 224 226 223 213 210 207 204 207 211 215 219 222 217 215 222 217 219 223 231 241 248 255 262
304 293 280 270 265 267 257 253 252 251 254 253 251 240 222 234 237 226 227 224 214 210 212 213 211 209 209 206 213 218 222 225 225 214 215 213 214 225 225 239 242 247 253
314 291 281 277 272 264 261 262 260 257 261 263 257 253 250 246 242 240 237 229 220 216 209 211 220 216 215 213 212 214 220 230 228 221 220 221 225 226 232 237 240 243 253
299 285 276 274 271 270 271 264 268 267 267 265 265 260 258 252 251 247 242 233 233 226 223 221 224 229 232 232 230 225 224 229 221 216 214 221 229 230 225 231 241 247 244
314 299 290 289 282 278 277 278 278 277 274 271 268 266 262 257 252 248 239 230 231 231 229 223 219 221 225 232 235 234 230 227 224 225 213 216 219 225 222 225 233 237 242